Weather History for KSUW - February, 2014

Change the Weather History Date:

Friday, February 14, 2014

  Actual Average Record
Temperature  
Mean Temperature 4 °F -  
Max Temperature 16 °F 24 °F 16 °F (2014)
Min Temperature -7 °F 6 °F -7 °F (2014)
Degree Days  
Heating Degree Days 60    
Moisture  
Dew Point -6 °F    
Average Humidity 70    
Maximum Humidity 90    
Minimum Humidity 49    
Precipitation  
Precipitation 0.00 in - - ()
Sea Level Pressure  
Sea Level Pressure 29.91 in    
Wind  
Wind Speed 6 mph (NW)    
Max Wind Speed 12 mph    
Max Gust Speed 16 mph    
Visibility 10 miles    
Events      
Averages and records for this station are not official NWS values.
T = Trace of Precipitation, MM = Missing Value Source: NWS Daily Summary

Daily Weather History Graph

Daily Weather History Graph

Search for Another Location

Airport or City:

Trip Planner

Search our weather history database for the weather conditions in past years. The results will help you decide how hot, cold, wet, or windy it might be!

Date:

Astronomy

Feb. 14, 2014 Rise Set
Actual Time 7:13 AM CST 5:31 PM CST
Civil Twilight 6:42 AM CST 6:03 PM CST
Nautical Twilight 6:07 AM CST 6:38 PM CST
Astronomical Twilight 5:32 AM CST 7:13 PM CST
Moon 5:39 PM CST (2/14) 6:38 AM CST (2/14)
Length of Visible Light 11h 20m
Length of Day
10h 18m
Full, 100% of the Moon is Illuminated
Feb 14
Full
Feb 14
Full
Feb 22
Last Quarter
Mar 1
New
Mar 8
First Quarter

Hourly Weather History & Observations

Time (CST) Temp. Windchill Dew Point Humidity Pressure Visibility Wind Dir Wind Speed Gust Speed Precip Events Conditions
12:15 AM 5.4 °F -8.6 °F -2.0 °F 72% 29.75 in 10.0 mi North 9.2 mph - N/A   Scattered Clouds
12:35 AM 4.1 °F -5.1 °F -3.1 °F 72% 29.76 in 10.0 mi North 4.6 mph - N/A   Scattered Clouds
12:55 AM 3.4 °F -12.0 °F -3.6 °F 73% 29.75 in 10.0 mi North 10.4 mph 16.1 mph N/A   Clear
1:15 AM 2.8 °F -13.5 °F -4.0 °F 73% 29.75 in 10.0 mi NNW 11.5 mph - N/A   Clear
1:35 AM 2.5 °F -14.0 °F -4.4 °F 73% 29.76 in 10.0 mi NNW 11.5 mph - N/A   Clear
1:55 AM 1.9 °F -11.8 °F -4.7 °F 74% 29.76 in 10.0 mi North 8.1 mph - N/A   Clear
2:15 AM 0.7 °F -13.3 °F -5.1 °F 77% 29.77 in 10.0 mi NNW 8.1 mph - N/A   Clear
2:35 AM 0.5 °F -12.3 °F -5.8 °F 75% 29.78 in 10.0 mi NNW 6.9 mph - N/A   Clear
2:55 AM -2.4 °F -10.6 °F -8.1 °F 76% 29.78 in 10.0 mi NNW 3.5 mph - N/A   Clear
3:15 AM -0.9 °F -14.1 °F -6.5 °F 77% 29.78 in 10.0 mi NW 6.9 mph - N/A   Clear
3:35 AM -1.1 °F -12.9 °F -6.7 °F 77% 29.78 in 10.0 mi NNW 5.8 mph - N/A   Clear
3:55 AM -1.5 °F -16.0 °F -7.1 °F 77% 29.79 in 10.0 mi NNW 8.1 mph - N/A   Clear
4:15 AM -2.0 °F -15.4 °F -8.0 °F 76% 29.80 in 10.0 mi WNW 6.9 mph - N/A   Clear
4:35 AM -3.6 °F -15.9 °F -8.9 °F 78% 29.80 in 10.0 mi NW 5.8 mph - N/A   Clear
4:55 AM -3.1 °F -16.7 °F -8.1 °F 79% 29.81 in 10.0 mi NW 6.9 mph - N/A   Clear
5:15 AM -2.0 °F -10.1 °F -7.8 °F 76% 29.82 in 10.0 mi NNW 3.5 mph - N/A   Clear
5:35 AM -3.3 °F -13.7 °F -8.9 °F 77% 29.83 in 10.0 mi WNW 4.6 mph - N/A   Clear
5:55 AM -4.2 °F -14.8 °F -8.7 °F 81% 29.84 in 10.0 mi West 4.6 mph - N/A   Clear
6:15 AM -4.7 °F -13.2 °F -9.8 °F 79% 29.85 in 10.0 mi WNW 3.5 mph - N/A   Clear
6:35 AM -7.4 °F - -11.7 °F 81% 29.86 in 10.0 mi Calm Calm - N/A   Clear
6:55 AM -6.5 °F -15.3 °F -11.2 °F 80% 29.86 in 10.0 mi West 3.5 mph - N/A   Clear
7:15 AM -5.8 °F -14.5 °F -10.3 °F 81% 29.87 in 10.0 mi WNW 3.5 mph - N/A   Clear
7:35 AM -5.8 °F -18.4 °F -10.3 °F 81% 29.88 in 10.0 mi NW 5.8 mph - N/A   Clear
7:55 AM -5.8 °F -16.7 °F -10.5 °F 80% 29.89 in 10.0 mi West 4.6 mph - N/A   Clear
8:15 AM -5.1 °F -15.8 °F -10.5 °F 78% 29.90 in 10.0 mi West 4.6 mph - N/A   Clear
8:35 AM -3.5 °F -13.9 °F -9.8 °F 74% 29.91 in 10.0 mi West 4.6 mph - N/A   Clear
8:55 AM -2.9 °F -13.3 °F -10.5 °F 70% 29.92 in 10.0 mi WNW 4.6 mph - N/A   Clear
9:15 AM -1.3 °F - -10.1 °F 66% 29.93 in 10.0 mi Calm Calm - N/A   Clear
9:35 AM -0.8 °F -15.1 °F -10.1 °F 65% 29.94 in 10.0 mi NW 8.1 mph - N/A   Clear
9:55 AM 0.3 °F -11.2 °F -9.4 °F 64% 29.94 in 10.0 mi NNW 5.8 mph - N/A   Clear
10:15 AM 1.6 °F -8.0 °F -8.7 °F 62% 29.94 in 10.0 mi NW 4.6 mph - N/A   Clear
10:35 AM 2.8 °F -10.7 °F -8.0 °F 61% 29.95 in 10.0 mi NW 8.1 mph - N/A   Clear
10:55 AM 3.9 °F -3.4 °F -7.2 °F 60% 29.95 in 10.0 mi NW 3.5 mph - N/A   Clear
11:15 AM 5.2 °F -5.4 °F -6.3 °F 59% 29.95 in 10.0 mi NW 5.8 mph - N/A   Clear
11:35 AM 6.4 °F -5.2 °F -5.4 °F 58% 29.94 in 10.0 mi NW 6.9 mph - N/A   Clear
11:55 AM 7.3 °F -2.8 °F -4.9 °F 57% 29.94 in 10.0 mi West 5.8 mph - N/A   Clear
12:15 PM 8.4 °F - -4.2 °F 57% 29.94 in 10.0 mi Calm Calm - N/A   Clear
12:35 PM 9.9 °F 0.2 °F -3.6 °F 54% 29.94 in 10.0 mi NW 5.8 mph - N/A   Clear
12:55 PM 10.8 °F 0.0 °F -3.5 °F 53% 29.94 in 10.0 mi West 6.9 mph - N/A   Clear
1:15 PM 11.5 °F -1.1 °F -2.9 °F 52% 29.93 in 10.0 mi WNW 9.2 mph - N/A   Clear
1:35 PM 11.8 °F 1.3 °F -2.4 °F 53% 29.93 in 10.0 mi NNW 6.9 mph - N/A   Clear
1:55 PM 12.7 °F 0.4 °F -1.7 °F 53% 29.93 in 10.0 mi NW 9.2 mph - N/A   Clear
2:15 PM 13.8 °F 8.0 °F -1.5 °F 51% 29.93 in 10.0 mi NW 3.5 mph - N/A   Clear
2:35 PM 14.5 °F 7.1 °F -1.3 °F 50% 29.93 in 10.0 mi NNW 4.6 mph - N/A   Clear
2:55 PM 14.9 °F 7.5 °F -1.1 °F 49% 29.93 in 10.0 mi NNW 4.6 mph - N/A   Clear
3:15 PM 15.4 °F 6.8 °F -0.4 °F 50% 29.94 in 10.0 mi West 5.8 mph - N/A   Clear
3:35 PM 15.8 °F 6.1 °F -0.6 °F 49% 29.95 in 10.0 mi North 6.9 mph - N/A   Clear
3:55 PM 14.9 °F 7.5 °F -0.4 °F 51% 29.96 in 10.0 mi NW 4.6 mph - N/A   Clear
4:15 PM 16.2 °F 4.7 °F 0.7 °F 51% 29.96 in 10.0 mi NNW 9.2 mph - N/A   Clear
4:35 PM 14.4 °F 2.4 °F -0.2 °F 52% 29.97 in 10.0 mi NW 9.2 mph - N/A   Clear
4:55 PM 13.8 °F 1.8 °F -0.4 °F 53% 29.97 in 10.0 mi NW 9.2 mph - N/A   Clear
5:15 PM 12.6 °F 3.4 °F -0.9 °F 55% 29.97 in 10.0 mi NW 5.8 mph - N/A   Clear
5:35 PM 11.5 °F 0.9 °F -1.1 °F 57% 29.98 in 10.0 mi NW 6.9 mph - N/A   Clear
6:24 PM 6.8 °F - -2.2 °F 67% 29.99 in 10.0 mi Calm Calm - N/A   Clear
6:35 PM 8.6 °F - -1.7 °F 63% 29.99 in 10.0 mi Calm Calm - N/A   Clear
6:43 PM 8.6 °F 2.0 °F -2.2 °F 62% 29.99 in 10.0 mi NW 3.5 mph - N/A   Clear
6:55 PM 8.6 °F 2.0 °F -0.8 °F 66% 29.99 in 10.0 mi WNW 3.5 mph - N/A   Clear
7:15 PM 0.7 °F - -5.1 °F 77% 29.98 in 10.0 mi Calm Calm - N/A   Clear
7:35 PM -0.2 °F - -5.3 °F 79% 29.98 in 10.0 mi Calm Calm - N/A   Clear
7:55 PM 0.7 °F -7.1 °F -1.7 °F 90% 29.98 in 10.0 mi WNW 3.5 mph - N/A   Clear
8:15 PM 1.4 °F -8.3 °F -4.0 °F 78% 29.98 in 10.0 mi West 4.6 mph - N/A   Clear
8:35 PM -1.8 °F - -5.1 °F 86% 29.98 in 10.0 mi Calm Calm - N/A   Clear
8:55 PM -3.8 °F - -6.9 °F 87% 29.99 in 10.0 mi Calm Calm - N/A   Clear
9:15 PM -5.1 °F - -9.8 °F 80% 29.99 in 10.0 mi Calm Calm - N/A   Clear
9:35 PM -5.4 °F -14.1 °F -8.5 °F 87% 30.00 in 10.0 mi South 3.5 mph - N/A   Clear
9:55 PM -4.9 °F -18.8 °F -7.6 °F 88% 29.99 in 10.0 mi SSE 6.9 mph - N/A   Clear
10:15 PM -7.1 °F -19.9 °F -10.5 °F 85% 29.99 in 10.0 mi SSW 5.8 mph - N/A   Clear
10:30 PM -6.0 °F -16.9 °F -9.4 °F 85% 29.99 in 10.0 mi SSW 4.6 mph - N/A   Clear
10:55 PM -2.4 °F - -7.2 °F 80% 30.00 in 10.0 mi Calm Calm - N/A   Clear
11:15 PM -1.7 °F - -5.6 °F 83% 29.99 in 10.0 mi Calm Calm - N/A   Clear
11:35 PM -2.2 °F - -5.6 °F 85% 29.99 in 10.0 mi Calm Calm - N/A   Clear
11:55 PM -4.5 °F - -8.0 °F 85% 29.99 in 10.0 mi Calm Calm - N/A   Clear